Location: Boiro
(42.6475°N, 8.8834°W)
Time: 18:15:05
(UTC+01:00)

Tiros 1 - Pass Details

Date: 15 December 2021
Orbit: 630 x 663 km, 48.4° (Epoch: 20 January)

Event Time Altitude Azimuth Distance (km) Brightness Sun altitude
Rises 14:16:28 0° 194° (SSW) 2,903 12.0 23.2°
Reaches altitude 10° 14:19:27 10° 174° (S) 1,997 11.3 23.1°
Maximum altitude 14:22:25 17° 134° (SE) 1,586 9.7 23.0°
Drops below altitude 10° 14:25:23 10° 93° (E) 2,004 9.6 22.9°
Sets 14:28:22 0° 74° (ENE) 2,918 10.2 22.7°
